When you browse on this site, cookies collect data to enhance your experience and personalize the content and advertising you see.
Visit our Privacy Policy to learn more. By continuing to use the site, you agree to this use of cookies and data.
  • In Belgien
  • Länderverzeichnis
  • Für 7 Tage
  • Wassertemperatur
  • Satellitenkarten
  • Wetterkarte
  • Widgets
  • user-avatar
    Anmelden

    Stündliche Wetter Algier

    Heute, 24 Januar, Donnerstag

    Zeit Temperatur Niederschläge Wind Luftdruck Luftfeuchtigkeit
    00:00 +11°C° 2.1 mm 15 m/S 738 mmHg 73%
    01:00 +12°C° 2 mm 14 m/S 737 mmHg 73%
    02:00 +10°C° 2 mm 14 m/S 737 mmHg 73%
    03:00 +10°C° 2 mm 13 m/S 737 mmHg 73%
    04:00 +10°C° 0.4 mm 13 m/S 737 mmHg 69%
    05:00 +10°C° 0.4 mm 14 m/S 737 mmHg 64%
    06:00 +10°C° 0.4 mm 14 m/S 737 mmHg 60%
    07:00 +10°C° 0.6 mm 14 m/S 738 mmHg 60%
    08:00 +9°C° 0.6 mm 14 m/S 738 mmHg 61%
    09:00 +9°C° 0.6 mm 14 m/S 739 mmHg 62%
    10:00 +9°C° 0.4 mm 12 m/S 740 mmHg 57%
    11:00 +9°C° 0.4 mm 11 m/S 740 mmHg 53%
    12:00 +10°C° 0.4 mm 9 m/S 741 mmHg 48%
    13:00 +10°C° 0 mm 9 m/S 741 mmHg 48%
    14:00 +10°C° 0 mm 9 m/S 741 mmHg 47%
    15:00 +10°C° 0 mm 8 m/S 742 mmHg 47%
    16:00 +9°C° 0.1 mm 8 m/S 742 mmHg 49%
    17:00 +9°C° 0.1 mm 7 m/S 743 mmHg 51%
    18:00 +8°C° 0.1 mm 6 m/S 744 mmHg 53%
    19:00 +8°C° 0 mm 5 m/S 744 mmHg 53%
    20:00 +8°C° 0 mm 4 m/S 745 mmHg 53%
    21:00 +8°C° 0 mm 4 m/S 745 mmHg 54%
    22:00 +9°C° 0 mm 3 m/S 746 mmHg 53%
    23:00 +9°C° 0 mm 3 m/S 746 mmHg 52%

    Morgen, 25 Januar, Freitag

    Zeit Temperatur Niederschläge Wind Luftdruck Luftfeuchtigkeit
    00:00 +9°C° 0 mm 3 m/S 746 mmHg 52%
    01:00 +9°C° 0 mm 3 m/S 746 mmHg 52%
    02:00 +9°C° 0 mm 2 m/S 746 mmHg 52%
    03:00 +9°C° 0 mm 2 m/S 746 mmHg 52%
    04:00 +9°C° 0 mm 3 m/S 746 mmHg 52%
    05:00 +8°C° 0 mm 3 m/S 746 mmHg 53%
    06:00 +7°C° 0 mm 4 m/S 746 mmHg 53%
    07:00 +8°C° 0 mm 5 m/S 747 mmHg 54%
    08:00 +9°C° 0 mm 6 m/S 747 mmHg 54%
    09:00 +10°C° 0 mm 7 m/S 747 mmHg 55%
    10:00 +11°C° 0 mm 7 m/S 748 mmHg 54%
    11:00 +11°C° 0 mm 7 m/S 748 mmHg 52%
    12:00 +12°C° 0 mm 7 m/S 748 mmHg 51%
    13:00 +12°C° 0 mm 7 m/S 748 mmHg 52%
    14:00 +13°C° 0 mm 6 m/S 748 mmHg 53%
    15:00 +13°C° 0 mm 6 m/S 747 mmHg 54%
    16:00 +11°C° 0 mm 6 m/S 748 mmHg 56%
    17:00 +11°C° 0 mm 6 m/S 748 mmHg 58%
    18:00 +10°C° 0 mm 5 m/S 748 mmHg 60%
    19:00 +10°C° 0 mm 6 m/S 748 mmHg 62%
    20:00 +10°C° 0 mm 6 m/S 748 mmHg 64%
    21:00 +10°C° 0 mm 6 m/S 749 mmHg 66%
    22:00 +10°C° 0.2 mm 5 m/S 749 mmHg 69%
    23:00 +10°C° 0.2 mm 5 m/S 749 mmHg 72%

    übermorgen, 26 Januar, Samstag

    Zeit Temperatur Niederschläge Wind Luftdruck Luftfeuchtigkeit
    00:00 +12°C° 0.2 mm 4 m/S 749 mmHg 75%
    01:00 +10°C° 0.2 mm 5 m/S 749 mmHg 73%
    02:00 +10°C° 0.2 mm 5 m/S 750 mmHg 71%
    03:00 +10°C° 0.2 mm 5 m/S 750 mmHg 69%
    04:00 +10°C° 0 mm 5 m/S 750 mmHg 68%
    05:00 +10°C° 0 mm 4 m/S 750 mmHg 67%
    06:00 +10°C° 0 mm 4 m/S 751 mmHg 67%
    07:00 +10°C° 0 mm 3 m/S 751 mmHg 64%
    08:00 +11°C° 0 mm 3 m/S 752 mmHg 62%
    09:00 +12°C° 0 mm 2 m/S 752 mmHg 60%
    10:00 +13°C° 0 mm 2 m/S 752 mmHg 55%
    11:00 +14°C° 0 mm 2 m/S 752 mmHg 50%
    12:00 +16°C° 0 mm 2 m/S 752 mmHg 46%
    13:00 +16°C° 0 mm 1 m/S 752 mmHg 46%
    14:00 +15°C° 0 mm 1 m/S 752 mmHg 47%
    15:00 +15°C° 0 mm 1 m/S 752 mmHg 47%
    16:00 +14°C° 0 mm 1 m/S 752 mmHg 51%
    17:00 +14°C° 0 mm 1 m/S 752 mmHg 55%
    18:00 +12°C° 0 mm 0 m/S 752 mmHg 59%
    19:00 +12°C° 0 mm 1 m/S 752 mmHg 60%
    20:00 +12°C° 0 mm 2 m/S 752 mmHg 62%
    21:00 +11°C° 0 mm 3 m/S 752 mmHg 64%
    22:00 +11°C° 0 mm 3 m/S 752 mmHg 62%
    23:00 +10°C° 0 mm 3 m/S 752 mmHg 59%

    27 Januar, Sonntag

    Zeit Temperatur Niederschläge Wind Luftdruck Luftfeuchtigkeit
    00:00 +10°C° 0 mm 3 m/S 751 mmHg 57%
    01:00 +10°C° 0 mm 3 m/S 751 mmHg 54%
    02:00 +10°C° 0 mm 3 m/S 750 mmHg 51%
    03:00 +10°C° 0 mm 3 m/S 750 mmHg 48%
    04:00 +10°C° 0 mm 3 m/S 750 mmHg 48%
    05:00 +10°C° 0 mm 3 m/S 749 mmHg 48%
    06:00 +10°C° 0 mm 3 m/S 749 mmHg 48%
    07:00 +11°C° 0 mm 3 m/S 749 mmHg 48%
    08:00 +12°C° 0 mm 3 m/S 749 mmHg 49%
    09:00 +13°C° 0 mm 3 m/S 749 mmHg 49%
    10:00 +16°C° 0 mm 3 m/S 749 mmHg 45%
    11:00 +17°C° 0 mm 3 m/S 748 mmHg 42%
    12:00 +19°C° 0 mm 3 m/S 748 mmHg 38%
    13:00 +19°C° 0 mm 4 m/S 747 mmHg 40%
    14:00 +18°C° 0 mm 4 m/S 747 mmHg 43%
    15:00 +17°C° 0 mm 5 m/S 746 mmHg 45%
    16:00 +16°C° 0 mm 5 m/S 747 mmHg 54%
    17:00 +15°C° 0 mm 6 m/S 747 mmHg 63%
    18:00 +14°C° 0 mm 6 m/S 747 mmHg 71%
    19:00 +13°C° 0.4 mm 5 m/S 747 mmHg 73%
    20:00 +13°C° 0.4 mm 5 m/S 748 mmHg 76%
    21:00 +12°C° 0.4 mm 4 m/S 748 mmHg 78%
    22:00 +12°C° 0.2 mm 5 m/S 748 mmHg 73%
    23:00 +11°C° 0.2 mm 6 m/S 748 mmHg 69%

    28 Januar, Montag

    Zeit Temperatur Niederschläge Wind Luftdruck Luftfeuchtigkeit
    00:00 +11°C° 0.2 mm 7 m/S 748 mmHg 65%
    01:00 +10°C° 0.2 mm 6 m/S 748 mmHg 64%
    02:00 +10°C° 0.2 mm 6 m/S 748 mmHg 64%
    03:00 +10°C° 0.2 mm 6 m/S 748 mmHg 64%
    04:00 +9°C° 0.2 mm 6 m/S 748 mmHg 64%
    05:00 +9°C° 0.2 mm 6 m/S 748 mmHg 64%
    06:00 +9°C° 0.2 mm 7 m/S 749 mmHg 64%
    07:00 +9°C° 0.2 mm 7 m/S 749 mmHg 62%
    08:00 +9°C° 0.2 mm 8 m/S 749 mmHg 61%
    09:00 +10°C° 0.2 mm 8 m/S 750 mmHg 59%
    10:00 +10°C° 0.1 mm 9 m/S 750 mmHg 57%
    11:00 +10°C° 0.1 mm 9 m/S 749 mmHg 56%
    12:00 +11°C° 0.1 mm 9 m/S 749 mmHg 54%
    13:00 +10°C° 0.1 mm 9 m/S 749 mmHg 55%
    14:00 +10°C° 0.1 mm 9 m/S 749 mmHg 56%
    15:00 +10°C° 0.1 mm 9 m/S 749 mmHg 56%
    16:00 +10°C° 0.2 mm 8 m/S 749 mmHg 58%
    17:00 +10°C° 0.2 mm 8 m/S 748 mmHg 60%
    18:00 +9°C° 0.2 mm 8 m/S 748 mmHg 61%
    19:00 +10°C° 1 mm 9 m/S 748 mmHg 65%
    20:00 +9°C° 1 mm 10 m/S 748 mmHg 68%
    21:00 +9°C° 1 mm 11 m/S 748 mmHg 71%
    22:00 +9°C° 1.2 mm 10 m/S 748 mmHg 70%
    23:00 +11°C° 1.2 mm 9 m/S 749 mmHg 69%

    29 Januar, Dienstag

    Zeit Temperatur Niederschläge Wind Luftdruck Luftfeuchtigkeit
    00:00 +11°C° 1.2 mm 9 m/S 749 mmHg 67%
    01:00 +11°C° 0.7 mm 8 m/S 749 mmHg 69%
    02:00 +10°C° 0.7 mm 8 m/S 749 mmHg 71%
    03:00 +10°C° 0.7 mm 7 m/S 749 mmHg 73%
    04:00 +10°C° 0.8 mm 7 m/S 750 mmHg 72%
    05:00 +10°C° 0.8 mm 7 m/S 750 mmHg 72%
    06:00 +10°C° 0.8 mm 7 m/S 750 mmHg 72%
    07:00 +10°C° 0.4 mm 7 m/S 750 mmHg 69%
    08:00 +11°C° 0.4 mm 7 m/S 751 mmHg 67%
    09:00 +11°C° 0.4 mm 7 m/S 751 mmHg 64%
    10:00 +12°C° 0 mm 7 m/S 751 mmHg 61%
    11:00 +12°C° 0 mm 7 m/S 752 mmHg 58%
    12:00 +14°C° 0 mm 7 m/S 752 mmHg 54%
    13:00 +14°C° 0 mm 7 m/S 752 mmHg 55%
    14:00 +12°C° 0 mm 7 m/S 752 mmHg 55%
    15:00 +13°C° 0 mm 6 m/S 752 mmHg 55%
    16:00 +12°C° 0 mm 5 m/S 752 mmHg 57%
    17:00 +12°C° 0 mm 5 m/S 752 mmHg 60%
    18:00 +11°C° 0 mm 4 m/S 752 mmHg 62%
    19:00 +11°C° 0 mm 4 m/S 753 mmHg 63%
    20:00 +11°C° 0 mm 4 m/S 753 mmHg 64%
    21:00 +10°C° 0 mm 4 m/S 754 mmHg 65%
    22:00 +10°C° 0 mm 4 m/S 754 mmHg 66%
    23:00 +10°C° 0 mm 4 m/S 754 mmHg 67%
    Mehr zeigen